User: anonymous   Login
Location: Simi Valley
(34.2690°N, 118.7810°W)
Time: 03:12:35
(UTC-07:00)
Language:

TITAN 4B R/B - Orbit

View from above orbital plane
View from above orbital plane
View from above satellite
View from above satellite

Ground track
Ground track

The orbit data is extracted from the following two-line orbital elements,

1 28647U 05016B   14292.11549232 0.00002800  00000-0  18120-3 0    02
2 28647  56.9986 354.3176 0132102  22.2494 337.7506 15.00744079    01
Epoch (UTC): 19 October 2014 02:46:18
Eccentricity: 0.0132102
inclination: 56.9986°
perigee height: 473 km
apogee height: 656 km
right ascension of ascending node: 354.3176°
argument of perigee: 22.2494°
revolutions per day: 15.00744079
mean anomaly at epoch: 337.7506°
orbit number at epoch: 0

The dashed part of the orbit path shows where the satellite is in the earth's shadow,  

DLR